EW7651 Weather Reports


time (UTC)temp
C
wind
direction
speed
KPH
gust
KPH
rain 1hr
cm
rain 24hr
cm
rain mn
cm
humidity
%
barometer
mb
20260510113032 18 17 0.0 0.0 0.00 0.00 0.00 50 1012.3
20260510111528 18 336 0.0 1.6 0.00 0.00 0.00 44 1012.5
20260510110025 18 242 0.0 4.8 0.00 0.00 0.00 39 1012.7
20260510104518 17 259 0.0 0.0 0.00 0.00 0.00 40 1012.8
20260510103015 17 265 0.0 0.0 0.00 0.00 0.00 41 1012.9
20260510101516 17 141 0.0 6.4 0.00 0.00 0.00 34 1013.1
20260510100008 17 197 0.0 0.0 0.00 0.00 0.00 37 1013.2
20260510094503 17 215 0.0 0.0 0.00 0.00 0.00 42 1013.2
20260510093102 16 190 0.0 0.0 0.00 0.00 0.00 40 1013.4
20260510091557 16 228 0.0 1.6 0.00 0.00 0.00 32 1013.4
20260510090053 16 289 0.0 0.0 0.00 0.00 0.00 31 1013.5
20260510084548 16 198 0.0 0.0 0.00 0.00 0.00 31 1013.4
20260510083052 16 182 0.0 0.0 0.00 0.00 0.00 53 1013.7
20260510081545 15 246 0.0 0.0 0.00 0.00 0.00 52 1013.9
20260510080038 15 208 0.0 0.0 0.00 0.00 0.00 52 1013.9
20260510074534 14 136 0.0 4.8 0.00 0.00 0.00 50 1013.9
20260510073029 14 193 0.0 0.0 0.00 0.00 0.00 40 1014.0
20260510071535 13 171 0.0 0.0 0.00 0.00 0.00 29 1014.0
20260510070024 13 190 0.0 0.0 0.00 0.00 0.00 27 1014.1
20260510064520 13 207 0.0 0.0 0.00 0.00 0.00 25 1014.0
20260510063022 12 210 0.0 1.6 0.00 0.00 0.00 18 1014.0
20260510061519 12 209 0.0 0.0 0.00 0.00 0.00 1 1014.1
20260510060007 11 239 0.0 0.0 0.00 0.00 0.00 1 1014.1
20260510054506 11 155 0.0 0.0 0.00 0.00 0.00 1 1014.1
20260510053059 11 82 0.0 0.0 0.00 0.00 0.00 1 1013.9
20260510051555 10 193 0.0 0.0 0.00 0.00 0.00 1 1014.0
20260510050052 10 32 0.0 0.0 0.00 0.00 0.00 1 1014.0
20260510044549 10 153 0.0 0.0 0.00 0.00 0.00 1 1014.0
20260510043047 10 167 0.0 0.0 0.00 0.00 0.00 1 1014.0
20260510041540 10 146 0.0 0.0 0.00 0.00 0.00 1 1014.0
20260510040036 10 222 0.0 0.0 0.00 0.00 0.00 1 1014.0
20260510034538 10 225 0.0 0.0 0.00 0.00 0.00 1 1013.9
20260510033027 10 242 0.0 0.0 0.00 0.00 0.00 1 1013.8
20260510031537 10 182 0.0 0.0 0.00 0.00 0.00 1 1014.0
20260510030024 10 242 0.0 0.0 0.00 0.00 0.00 1 1014.0
20260510024639 10 98 0.0 0.0 0.00 0.00 0.00 1 1014.1
20260510023013 10 96 0.0 0.0 0.00 0.00 0.00 1 1014.2
20260510021508 10 142 0.0 0.0 0.00 0.00 0.00 1 1014.3
20260510020006 10 97 0.0 0.0 0.00 0.00 0.00 1 1014.3
20260510014503 10 105 0.0 0.0 0.00 0.00 0.00 1 1014.3
20260510013059 10 117 0.0 0.0 0.00 0.00 0.00 1 1014.3
20260510011557 10 138 0.0 0.0 0.00 0.00 0.00 1 1014.2
20260510010053 11 138 0.0 0.0 0.00 0.00 0.00 1 1014.3
20260510004550 11 138 0.0 0.0 0.00 0.00 0.00 1 1014.4
20260510003102 11 138 0.0 0.0 0.00 0.00 0.00 1 1014.7
20260510001542 11 138 0.0 0.0 0.00 0.00 0.00 1 1014.8
20260510000043 11 119 0.0 0.0 0.00 0.00 0.00 1 1014.9
20260509234543 12 248 0.0 0.0 0.00 0.00 0.00 1 1014.9
20260509233030 12 248 0.0 0.0 0.00 0.00 0.00 1 1014.8
20260509231531 12 166 0.0 0.0 0.00 0.00 0.00 1 1014.8
20260509230029 12 155 0.0 0.0 0.00 0.00 0.00 1 1014.8
20260509224519 12 87 0.0 0.0 0.00 0.00 0.00 1 1014.8
20260509223014 12 42 0.0 0.0 0.00 0.00 0.00 1 1014.9
20260509221510 12 42 0.0 0.0 0.00 0.00 0.00 1 1014.9
20260509220008 12 42 0.0 0.0 0.00 0.00 0.00 1 1014.9
20260509214504 12 42 0.0 0.0 0.00 0.00 0.00 1 1014.8
20260509213101 12 42 0.0 0.0 0.00 0.00 0.00 1 1014.9
20260509211603 12 42 0.0 0.0 0.00 0.00 0.00 1 1014.8
20260509210056 13 284 0.0 0.0 0.00 0.00 0.00 4 1014.9
20260509204548 13 284 0.0 0.0 0.00 0.00 0.00 13 1014.9
20260509203044 13 284 0.0 0.0 0.00 0.00 0.00 24 1014.8
20260509201540 13 309 0.0 0.0 0.00 0.00 0.00 33 1014.7
20260509200037 13 304 0.0 0.0 0.00 0.00 0.00 40 1014.8
20260509194536 14 152 0.0 0.0 0.00 0.00 0.00 44 1014.7
20260509193029 14 265 0.0 0.0 0.00 0.00 0.00 50 1014.6
20260509191526 15 166 0.0 0.0 0.00 0.00 0.00 53 1014.5
20260509190022 15 195 0.0 0.0 0.00 0.00 0.00 54 1014.4
20260509184518 15 192 0.0 0.0 0.00 0.00 0.00 53 1014.4
20260509183022 16 190 0.0 0.0 0.00 0.00 0.00 52 1014.3
20260509181510 16 247 0.0 0.0 0.00 0.00 0.00 50 1014.2
20260509180005 16 241 0.0 0.0 0.00 0.00 0.00 49 1014.0
20260509174505 17 252 0.0 0.0 0.00 0.00 0.00 49 1014.1
20260509173104 17 232 0.0 0.0 0.00 0.00 0.00 49 1014.1
20260509171558 18 254 0.0 0.0 0.00 0.00 0.00 48 1014.3
20260509170054 18 246 0.0 0.0 0.00 0.00 0.00 49 1014.3
20260509164553 19 234 0.0 0.0 0.00 0.00 0.00 47 1014.4
20260509163042 20 35 0.0 0.0 0.00 0.00 0.00 47 1014.2
20260509161538 21 201 0.0 0.0 0.00 0.00 0.00 45 1014.2
20260509160035 21 242 0.0 0.0 0.00 0.00 0.00 44 1014.2
20260509154531 21 241 0.0 0.0 0.00 0.00 0.00 44 1014.1
20260509153027 22 240 0.0 0.0 0.00 0.00 0.00 43 1014.1
20260509151523 22 240 0.0 0.0 0.00 0.00 0.00 42 1014.2
20260509150021 23 191 0.0 0.0 0.00 0.00 0.00 41 1014.3
20260509144528 23 197 0.0 0.0 0.00 0.00 0.00 42 1014.4
20260509143013 22 161 0.0 0.0 0.00 0.00 0.00 45 1014.5
20260509141508 23 308 0.0 0.0 0.00 0.00 0.00 42 1014.6
20260509140006 22 254 0.0 0.0 0.00 0.00 0.00 44 1014.7
20260509134603 22 249 0.0 0.0 0.00 0.00 0.00 44 1014.8
20260509133102 22 217 0.0 0.0 0.00 0.00 0.00 43 1015.1
20260509131552 22 323 0.0 0.0 0.00 0.00 0.00 45 1015.1
20260509130052 21 360 0.0 0.0 0.00 0.00 0.00 44 1015.3
20260509124545 22 281 0.0 0.0 0.00 0.00 0.00 43 1015.5
20260509123042 22 266 0.0 0.0 0.00 0.00 0.00 45 1015.6
20260509121538 21 258 0.0 0.0 0.00 0.00 0.00 45 1015.8
20260509120035 22 360 0.0 0.0 0.00 0.00 0.00 44 1015.8
20260509114532 21 211 0.0 0.0 0.00 0.00 0.00 46 1015.8